"Pseudo-MPEC" for C8GK7V2

Created 2022 Nov 25 13:22:12 UT using Find_Orb

Click here for an explanation of pseudo-MPECs

 
 Astrometry: 
     C8GK7V2*1C2022 11 23.40078404 06 25.852+49 38 38.69   ~BNAb 20.56GVNEOCPG96
     C8GK7V2 1C2022 11 23.40667104 06 23.936+49 38 49.74   ~BNAb 20.93GVNEOCPG96
     C8GK7V2 1C2022 11 23.41839404 06 19.969+49 39 12.78   ~BNAb 21.15GVNEOCPG96
     C8GK7V2 KC2022 11 23.48172604 05 59.075+49 41 12.62   ~BNBq 21.09GVNEOCPI52
     C8GK7V2 KC2022 11 23.48310904 05 58.744+49 41 14.89   ~BNBq 20.58GVNEOCPI52
     C8GK7V2 KC2022 11 23.48448904 05 58.182+49 41 17.74   ~BNBq 20.81GVNEOCPI52
     C8GK7V2 KC2022 11 23.48587204 05 57.718+49 41 20.44   ~BNBq 21.11GVNEOCPI52
     C8GK7V2 KC2022 11 23aky#Astrometry;^M6@xf?,g\a,+/!-cAli4]1/cLUOM14G.xhM_L01
     C8GK7V2 KC2022 11 23U/nc=VM^ps_[\.7r]?*K?QYr?`WOJ1krtb(GG+rtDSV!aHsygW$`L01
     C8GK7V2 IC2022 11 23/8X(xi1VOO?Wv@H:;J=Lip9GuT0328eV$hredacted;04q_-N6MkL01
     C8GK7V2 HC2022 11 24^A,:FXrkNf8#tH6,;sDM-;f;CBh;NUdPg6vpVhsP7d7,@S%dZfYG204
     C8GK7V2 KC2022 11 24[V#$Ervs(:$oP?click-h97Y#N?w\xaet=FPu$OmTIOn'yE',I1w204
     C8GK7V2 HC2022 11 24)hLHe.G$fvf+qE4y7nnm9E1yoCvReTQdUWiA2?b=6-+.,Caoma[F204
     C8GK7V2 KC2022 11 25VXCbCytdL,-mLU5b@JIc'#%PKfhere1qvin^gnT;2G?NeE)T;FueH36
     C8GK7V2 KC2022 11 25I8lL=Cforw).I%R==?er4wR\p!;00V0+vYwB_o?7x(`XZWOSCGgt734
     C8GK7V2 KC2022 11 25#kZY`DiqTNGgKC'tcsk$+%5Z2X\y-6Wxp68;YcI-dk2.L-KjZpH?734
     C8GK7V2 KC2022 11 25u]y-p5`#%qUvaGk@1n'O9:]e!./[$1SoS`?C!vHrQxZxCcl(9+vPH36
     C8GK7V2 KC2022 11 25Kw_42=Ffqos1420?+;q?m;?1-!$lQTq(m,:1,Z\!TmiJZSi?n;^a734
     C8GK7V2 KC2022 11 25V#r=Yvc0+[9xA-cMhENvm=FMpjl+PY;-,X@(Aexplanation+gVx734
     C8GK7V2 KC2022 11 25fw+)JM)RIvIp#s:I7ySq::#L[_mfM$m!IPwY2/\JfUd5GchW)u)4H36

Station data:
(204) Schiaparelli Observatory  (N45.867930 E8.770800)  Italy.  Observer L.
   Buzzi. 0.60-m f/4.64 Newtonian + CCD0.84-m f/3.5 reflector + CCD.
(734) Farpoint Observatory, Eskridge  (N38.890104 W96.001400)  US/Kansas.
   Observer G. Hug. 0.69-m reflector + CCD.
(G96) Mt. Lemmon Survey  (N32.442751 W110.788720)  US/Arizona.  Observers T.
   A. Pruyne, B. M. Africano, E. J. Christensen, G. A. Farneth, D. C. Fuls,
   A. R. Gibbs, A. D. Grauer, H. Gröller, J. A. Johnson, R. A. Kowalski, S.
   M. Larson, G. J. Leonard, D. Rankin, R. L. Seaman, F. C. Shelly, K. W.
   Wierzchoś. 1.5-m reflector + 10K CCD.
(H36) Sandlot Observatory, Scranton  (N38.797691 W95.706400)  US/Kansas.
   Observer G. Hug. 0.56-m reflector + CCD.
(I52) Steward Observatory, Mt. Lemmon Station  (N32.442544 W110.788920)
   US/Arizona.  Observers T. A. Pruyne, B. M. Africano, E. J. Christensen, G.
   A. Farneth, D. C. Fuls, A. R. Gibbs, A. D. Grauer, H. Gröller, J. A.
   Johnson, R. A. Kowalski, S. M. Larson, G. J. Leonard, D. Rankin, R. L.
   Seaman, F. C. Shelly, K. W. Wierzchoś. 1.0-m reflector + CCD.
(L01) Višnjan Observatory, Tičan  (N45.290897 E13.749300)  Croatia.
   Observers K. Korlević, D. Pujagic, V. Dobos. Measurers D. Pujagic, K.
   Korlević. 1.0-m f/2.9 reflector + CCD.

Orbital elements:  C8GK7V2
   Perihelion 2023 Feb 6.39306 +/- 0.11 TT =  9:26:00 (JD 2459981.89306)
Epoch 2022 Nov 25.0 TT = JDT 2459908.5   Earth MOID: 0.0114   Ve: 0.0960
M 295.61103612 +/- 0.20             (J2000 ecliptic)          AutoNEOCP
n   0.87731675 +/- 0.00144          Peri.  271.31152 +/- 0.020
a   1.08068328 +/- 0.00119          Node   257.13531 +/- 0.033
e   0.3563618 +/- 0.00162           Incl.    7.16144 +/- 0.037
P   1.12/410.33d           H 25.5   G  0.15   U  8.4
q 0.69556901 +/- 0.000988    Q 1.46579754 +/- 0.00336
18 of 20 observations 2022 Nov. 23-25 (44.0 hr); mean residual 0".37
Residuals in arcseconds: 
221123 G96  .40-  .53+    221123 L01  .21-  .69-    221125 734  .92-  .24-    
221123 G96  .38+  .07-    221123 L01  .03-  .06+    221125 734  .28+  .12-    
221123 G96  .28+  .02-    221123 L01  .16+  .32+    221125 H36( 1.0-  1.9+)   
221123 I52  .19-  .00     221124 204  .10+  .53-    221125 734  .30+  .43+    
221123 I52  .90+  .28-    221124 204  .23+  .14+    221125 734  .13-  .41+    
221123 I52  .27-  .02+    221124 204  .54-  .21+    221125 H36  .35+  .21-    
221123 I52  .48-  .18+    221125 H36( .21+  3.5+)   

Ephemerides (geocentric):
Date (UTC) HH   RA             Dec           delta  r     elong  mag " sig PA
---- --------  ------------   ------------  ------ ------ -----  --- --------
2022 11 25 13  03 53 39.752   +51 09 48.20  .06299 1.0420 149.5 20.8 .278 178
2022 11 25 14  03 53 20.847   +51 11 50.85  .06273 1.0417 149.5 20.8 .303 175
2022 11 25 15  03 53 01.757   +51 13 54.19  .06247 1.0414 149.5 20.8 .331 172
2022 11 25 16  03 52 42.479   +51 15 58.24  .06221 1.0412 149.4 20.8 .361 169
2022 11 25 17  03 52 23.012   +51 18 03.00  .06195 1.0409 149.4 20.8 .392 167
2022 11 25 18  03 52 03.353   +51 20 08.47  .06169 1.0407 149.3 20.8 .426 164
2022 11 25 19  03 51 43.498   +51 22 14.66  .06143 1.0404 149.3 20.8 .462 162
2022 11 25 20  03 51 23.445   +51 24 21.58  .06117 1.0402 149.3 20.8 .500 160
2022 11 25 21  03 51 03.192   +51 26 29.23  .06091 1.0399 149.2 20.8 .540 159
2022 11 25 22  03 50 42.735   +51 28 37.62  .06064 1.0397 149.2 20.8 .583 157
2022 11 25 23  03 50 22.072   +51 30 46.75  .06038 1.0394 149.2 20.7 .627 155
2022 11 26 00  03 50 01.200   +51 32 56.63  .06013 1.0392 149.1 20.7 .674 154
2022 11 26 01  03 49 40.115   +51 35 07.28  .05987 1.0389 149.1 20.7 .723 153
2022 11 26 02  03 49 18.814   +51 37 18.68  .05961 1.0387 149.1 20.7 .774 151
2022 11 26 03  03 48 57.296   +51 39 30.86  .05935 1.0384 149.0 20.7 .827 150
2022 11 26 04  03 48 35.555   +51 41 43.81  .05909 1.0381 149.0 20.7 .883 149
2022 11 26 05  03 48 13.589   +51 43 57.54  .05883 1.0379 148.9 20.7 .941 148
2022 11 26 06  03 47 51.396   +51 46 12.07  .05857 1.0376 148.9 20.7 1.00 147
2022 11 26 07  03 47 28.970   +51 48 27.38  .05831 1.0374 148.9 20.7 1.06 146
2022 11 26 08  03 47 06.310   +51 50 43.50  .05805 1.0371 148.8 20.7 1.13 146
2022 11 26 09  03 46 43.410   +51 53 00.43  .05779 1.0369 148.8 20.7 1.20 145
2022 11 26 10  03 46 20.269   +51 55 18.17  .05753 1.0366 148.7 20.6 1.27 144
2022 11 26 11  03 45 56.882   +51 57 36.73  .05727 1.0364 148.7 20.6 1.34 143
2022 11 26 12  03 45 33.245   +51 59 56.11  .05702 1.0361 148.6 20.6 1.42 143
2022 11 26 13  03 45 09.355   +52 02 16.33  .05676 1.0359 148.6 20.6 1.50 142
2022 11 26 14  03 44 45.208   +52 04 37.39  .05650 1.0356 148.5 20.6 1.58 141
2022 11 26 15  03 44 20.800   +52 06 59.30  .05624 1.0353 148.5 20.6 1.66 141
2022 11 26 16  03 43 56.126   +52 09 22.05  .05598 1.0351 148.4 20.6 1.75 140
2022 11 26 17  03 43 31.184   +52 11 45.67  .05573 1.0348 148.4 20.6 1.84 140
2022 11 26 18  03 43 05.968   +52 14 10.15  .05547 1.0346 148.3 20.6 1.94 139
2022 11 26 19  03 42 40.474   +52 16 35.50  .05521 1.0343 148.3 20.6 2.03 139
2022 11 26 20  03 42 14.698   +52 19 01.73  .05495 1.0341 148.2 20.6 2.13 138
2022 11 26 21  03 41 48.636   +52 21 28.84  .05470 1.0338 148.2 20.5 2.24 138
2022 11 26 22  03 41 22.283   +52 23 56.84  .05444 1.0336 148.1 20.5 2.35 137
2022 11 26 23  03 40 55.634   +52 26 25.74  .05418 1.0333 148.1 20.5 2.46 137
2022 11 27 00  03 40 28.684   +52 28 55.54  .05392 1.0330 148.0 20.5 2.57 136
2022 11 27 01  03 40 01.430   +52 31 26.25  .05367 1.0328 148.0 20.5 2.69 136
2022 11 27 02  03 39 33.865   +52 33 57.88  .05341 1.0325 147.9 20.5 2.81 135
2022 11 27 03  03 39 05.985   +52 36 30.43  .05316 1.0323 147.9 20.5 2.94 135
2022 11 27 04  03 38 37.785   +52 39 03.90  .05290 1.0320 147.8 20.5 3.07 135
2022 11 27 05  03 38 09.259   +52 41 38.30  .05264 1.0318 147.8 20.5 3.20 134
2022 11 27 06  03 37 40.403   +52 44 13.65  .05239 1.0315 147.7 20.5 3.34 134
2022 11 27 07  03 37 11.210   +52 46 49.94  .05213 1.0313 147.6 20.5 3.48 134
2022 11 27 08  03 36 41.675   +52 49 27.18  .05188 1.0310 147.6 20.4 3.63 133
2022 11 27 09  03 36 11.793   +52 52 05.37  .05162 1.0308 147.5 20.4 3.78 133
2022 11 27 10  03 35 41.557   +52 54 44.53  .05136 1.0305 147.4 20.4 3.93 132
2022 11 27 11  03 35 10.962   +52 57 24.65  .05111 1.0302 147.4 20.4 4.09 132
2022 11 27 12  03 34 40.002   +53 00 05.75  .05085 1.0300 147.3 20.4 4.26 132